Home > Weather > Noumea > Past weeks

Flag for New Caledonia Past Weather in Noumea, New Caledonia, New Caledonia — Yesterday and Last 2 Weeks

Now
73 °F

Overcast.


Feels Like: 75 °F
Forecast: 65 / 82 °F
Wind: No wind

Location: La Tontouta Nlle-Caledonie

Current Time: Jul 26, 2016 at 9:24:51 PM

Latest Report: Jul 26, 2016 at 8:00 PM


Visibility: N/A

Pressure: 30.04 "Hg

Humidity: 74%

Dew Point: 64 °F

Location of NoumeaLocation

Past Weather in Noumea — Graph

°F

Noumea Temperature Yesterday

Maximum temperature yesterday: 84 °F (at 12:30 PM)
Minimum temperature yesterday: 61 °F (at 4:30 AM)
Average temperature yesterday: 72 °F

High & Low Weather Summary for the Past Weeks

 TemperatureHumidityPressure
High84 °F (Jul 25, 12:30 PM)100% (Jul 23, 7:00 AM)30.21 "Hg (Jul 23, 7:00 AM)
Low54 °F (Jul 20, 7:00 AM)47% (Jul 19, 12:00 PM)29.92 "Hg (Jul 23, 1:30 PM)
Average68 °F73%30.07 "Hg
* Reported Jul 11 8:00 PM — Jul 26 8:00 PM, Noumea, Weather by CustomWeather, © 2016

Note: Actual official high and low records may vary slightly from our data, if they occured in-between our weather recording intervals... More about our weather records

Advertising

Noumea Weather History for the Previous 24 Hours

Scroll right to see more
 ConditionsComfort  
Time TempWeatherWind HumidityBarometerVisibility
8:00 PM
Tue, Jul 26
73 °FOvercast.No wind74%30.04 "HgN/A
7:30 PM73 °FOvercast.No wind74%30.04 "HgN/A
7:00 PM73 °FPassing clouds.No wind74%30.04 "HgN/A
6:30 PM75 °FClear.3 mph69%30.01 "Hg10 mi
6:00 PM75 °FPartly cloudy.5 mph74%30.01 "HgN/A
5:30 PM75 °FOvercast.6 mph74%30.01 "HgN/A
5:00 PM77 °FMostly cloudy.6 mph65%29.98 "HgN/A
4:30 PM79 °FOvercast.9 mph58%29.98 "HgN/A
4:00 PM79 °FMostly cloudy.10 mph58%29.98 "HgN/A
3:30 PM81 °FOvercast.10 mph54%29.98 "HgN/A
3:00 PM82 °FScattered clouds.14 mph48%29.98 "HgN/A
2:30 PM82 °FScattered clouds.13 mph55%29.98 "HgN/A
2:00 PM82 °FPartly sunny.12 mph58%29.98 "HgN/A
1:30 PM82 °FScattered clouds.10 mph58%29.98 "HgN/A
1:00 PM79 °FPassing clouds.13 mph65%30.01 "HgN/A
12:30 PM81 °FPassing clouds.13 mph62%30.01 "HgN/A
12:00 PM82 °FScattered clouds.13 mph62%30.01 "HgN/A
11:30 AM81 °FScattered clouds.10 mph66%30.04 "HgN/A
11:00 AM81 °FPassing clouds.8 mph58%30.04 "HgN/A
10:30 AM81 °FSunny.2 mph58%30.07 "Hg10 mi
10:00 AM79 °FSunny.2 mph61%30.07 "Hg10 mi
9:30 AM77 °FSunny.2 mph65%30.07 "Hg10 mi
9:00 AM73 °FSunny.No wind74%30.07 "Hg10 mi
8:30 AM70 °FSunny.2 mph78%30.07 "Hg10 mi
8:00 AM64 °FSunny.3 mph94%30.07 "Hg10 mi
7:30 AM63 °FSunny.No wind94%30.07 "Hg10 mi
7:00 AM64 °FSunny.No wind94%30.04 "Hg10 mi
6:30 AM63 °FSunny.No wind94%30.04 "Hg10 mi
6:00 AM64 °FClear.1 mph94%30.04 "Hg6 mi
5:30 AM63 °FSunny.1 mph94%30.04 "Hg10 mi
5:00 AM63 °FClear.No wind94%30.01 "Hg10 mi
4:30 AM64 °FPassing clouds.1 mph94%30.01 "HgN/A
4:00 AM64 °FPassing clouds.No wind94%30.01 "HgN/A
3:30 AM64 °FPassing clouds.3 mph94%30.01 "HgN/A
3:00 AM63 °FClear.2 mph94%30.01 "Hg6 mi
2:30 AM64 °FPassing clouds.2 mph94%30.04 "HgN/A
2:00 AM64 °FPassing clouds.1 mph94%30.04 "HgN/A
1:30 AM64 °FPassing clouds.2 mph94%30.04 "HgN/A
1:00 AM66 °FClear.No wind88%30.04 "Hg10 mi
12:30 AM66 °FPassing clouds.2 mph88%30.04 "HgN/A
12:00 AM64 °FPassing clouds.No wind94%30.04 "HgN/A
11:30 PM
Mon, Jul 25
66 °FPassing clouds.No wind88%30.04 "HgN/A
11:00 PM66 °FClear.No wind83%30.04 "Hg10 mi
10:30 PM68 °FClear.2 mph83%30.04 "Hg10 mi
10:00 PM68 °FClear.3 mph88%30.04 "Hg10 mi
9:30 PM68 °FClear.2 mph83%30.04 "Hg10 mi
9:00 PM68 °FClear.No wind83%30.04 "Hg10 mi
Weather by CustomWeather, © 2016

See weather overviewHow to use our weather pages